* Astronomy

Members Login
Username 
 
Password 
    Remember Me  
Post Info TOPIC: H-2A rocket body re-entry


L

Posts: 131433
Date:
RE: H-2A rocket body re-entry
Permalink  
 


Update:
The H-2A rocket body re-entered the Earths atmosphere on the 15th February, 2012 @ 21:18 GMT  ± 1 minute.

Inclination: 97.4°
Revolution Number: 30613
Predicted Location:  82°S, 213°E



__________________


L

Posts: 131433
Date:
Permalink  
 

Update:
The H-2A rocket body is predicted to re-enter the Earths atmosphere on the 16th February, 2012 @ 01:24 GMT  ± 24 hours.

H-2A RB
1 29394U 06037B   12045.37467699  .02885499  24547-5  80032-3 0  8612
2 29394 097.4014 210.0530 0007054 321.9978 039.3597 16.27895554305882

29394b.gif
Expand (28kb, 857 x 564)

Period:       88.90 minutes
Inclination: 97.4°
Apogee:     225 km
Perigee:     215 km
Revolution Number: 30615
Predicted Location:  3.8°N, 227.2°E



__________________


L

Posts: 131433
Date:
Permalink  
 

Update:
The H-2A rocket body is predicted to re-enter the Earths atmosphere on the 16th February, 2012 @ 02:54 GMT  ± 48 hours.

H-2A RB
1 29394U 06037B   12044.82097766  .02193703  24460-5  79341-3 0  8586
2 29394 097.4086 209.4287 0007162 330.6295 031.2356 16.24806230305795

Period:       88.90 minutes
Inclination: 97.4°
Apogee:     225 km
Perigee:     215 km
Revolution Number: 30616
Predicted Location:  5.8°S, 203.3°E



__________________


L

Posts: 131433
Date:
Permalink  
 

Update:
The H-2A rocket body is predicted to re-enter the Earths atmosphere on the 16th February, 2012 @ 02:15 GMT  ± 48 hours.

H-2A RB
1 29394U 06037B   12043.15451566  .01171563  24175-5  68195-3 0  8535
2 29394 097.4050 207.5163 0007006 338.5136 021.5753 16.18781951305525

Period:       89.05 minutes
Inclination: 97.4°
Apogee:     232 km
Perigee:     223 km
Revolution Number: 30618
Predicted Location:  26.7°N, 30.2°E



__________________


L

Posts: 131433
Date:
Permalink  
 

Update:
The H-2A rocket body is predicted to re-enter the Earths atmosphere on the 5th February, 2012 @ --:-- GMT  ± -- hours.

H-2A RB
1 29394U 06037B   12024.19872875  .00400422  66537-4  99375-3 0  7918
2 29394 097.4189 186.3873 0004171 113.7874 246.3853 15.95871381302483

Period:       90.27 minutes
Inclination: 97.42°
Apogee:     290 km
Perigee:     285 km
Revolution Number: -
Predicted Location:  -



__________________


L

Posts: 131433
Date:
Permalink  
 

A H-2A rocket body that was launched on the 11th September, 2006, from the Tanegashima Space Centre, for the IGS 3A optical surveillance satellite mission, is predicted to re-enter the Earths atmosphere on the 31st January, 2012 @ --:-- GMT  ± -- hours.

H-2A RB
1 29394U 06037B   12004.94652193 +.00232152 +00000-0 +91607-3 0 07516
2 29394 097.4179 165.3344 0012055 200.9718 159.1097 15.86132241299423

Period:       90.8 minutes
Inclination: 97.42°
Apogee:     322 km
Perigee:     306 km
Revolution Number: -
Predicted Location:  -



__________________
Page 1 of 1  sorted by
 
Quick Reply

Please log in to post quick replies.



Create your own FREE Forum
Report Abuse
Powered by ActiveBoard